Home > Weather > Spa > Past weeks

Flag for Belgium Weather for the Past 2 Weeks in Spa, Belgium

Now
45 °F

Partly sunny.


Feels Like: 38 °F
Forecast: 36 / 46 °F
Wind: 14 mph from Southwest

Location: Elsenborn

Current Time: Apr 29, 2016 at 12:28:59 PM

Latest Report: Apr 29, 2016 at 11:55 AM


Visibility: N/A

Pressure: 29.95 "Hg

Humidity: 61%

Dew Point: 32 °F

Location of SpaLocation

Historic Weather in Spa — Graph

°F

Spa Temperature Yesterday

Maximum temperature yesterday: 43 °F (at 3:55 PM)
Minimum temperature yesterday: 28 °F (at 5:25 AM)
Average temperature yesterday: 34 °F

High & Low Weather Summary for the Past Weeks

 TemperatureHumidityPressure
High66 °F (Apr 21, 3:55 PM)100% (Apr 15, 7:04 AM)30.42 "Hg (Apr 15, 7:04 AM)
Low23 °F (Apr 18, 5:55 AM)24% (Apr 21, 2:25 PM)29.50 "Hg (Apr 16, 5:25 AM)
Average40 °F78%29.92 "Hg
* Reported Apr 14 10:55 AM — Apr 29 10:55 AM, Spa, Weather by CustomWeather, © 2016

Note: Actual official high and low records may vary slightly from our data, if they occured in-between our weather recording intervals... More about our weather records

Advertising

Spa Weather History for the Previous 24 Hours

Scroll right to see more
 ConditionsComfort  
Time TempWeatherWind HumidityBarometerVisibility
10:55 AM
Fri, Apr 29
45 °FBroken clouds.13 mph61%29.95 "HgN/A
10:25 AM43 °FPartly sunny.13 mph66%29.95 "HgN/A
9:55 AM43 °FPartly sunny.10 mph66%29.95 "HgN/A
9:25 AM41 °FQuite cool.8 mph70%29.95 "HgN/A
8:55 AM39 °FPassing clouds.9 mph75%29.95 "HgN/A
8:25 AM39 °FPassing clouds.8 mph70%29.92 "HgN/A
7:55 AM37 °FChilly.9 mph75%29.92 "HgN/A
7:25 AM36 °FPassing clouds.8 mph81%29.92 "HgN/A
6:55 AM34 °FPassing clouds.7 mph87%29.92 "HgN/A
5:55 AM32 °FPassing clouds.3 mph93%29.92 "HgN/A
2:25 AM27 °FChilly.2 mph100%29.95 "Hg2 mi
1:55 AM28 °FChilly.2 mph93%29.95 "Hg6 mi
12:55 AM28 °FFog.1 mph93%29.95 "Hg0 mi
12:25 AM28 °FPassing clouds.1 mph100%29.95 "Hg5 mi
11:25 PM
Thu, Apr 28
30 °FChilly.1 mph93%29.95 "Hg2 mi
10:55 PM30 °FFog.No wind93%29.98 "Hg0 mi
10:25 PM32 °FPassing clouds.1 mph93%29.98 "Hg6 mi
7:25 PM39 °FPartly sunny.6 mph81%29.95 "HgN/A
6:55 PM36 °FPartly sunny.3 mph93%29.95 "HgN/A
5:55 PM39 °FMostly cloudy.5 mph75%29.95 "HgN/A
5:25 PM37 °FOvercast.14 mph81%29.95 "HgN/A
4:55 PM43 °FPartly sunny.7 mph49%29.92 "HgN/A
4:25 PM43 °FOvercast.7 mph53%29.92 "HgN/A
3:55 PM43 °FScattered clouds.5 mph57%29.95 "HgN/A
2:55 PM39 °FScattered clouds.7 mph75%29.95 "HgN/A
2:25 PM37 °FLight rain. Partly sunny.7 mph81%29.95 "HgN/A
1:25 PM41 °FPartly sunny.5 mph61%29.95 "HgN/A
12:55 PM41 °FScattered clouds.3 mph66%29.95 "HgN/A
12:25 PM34 °FLight snow. Overcast.9 mph87%29.95 "Hg1 mi
Weather by CustomWeather, © 2016

See weather overviewHow to use our weather pages